SCP
0 0 0 0 0 0 0 0 0 0 0 0 0 0 0 0 0 0 0 0 0 0 0 0 0 0 0 0 0 0 0 0 0 0 0 0 0 0 0 0 0 0 0 0
0 0 0 0 0 0 0 0 0 0 0 0 0 0 0 0 0 0 0 0 0 0 0 0 0 0 0 0 0 0 0 0 0 0 0 0 0 0 0 0 0 0 0 0
0 0 0 0 0 0 0 0 0 0 0 0 0 0 0 0 0 0 0 0 0 0 0 0 0 0 0 0 0 0 0 0 0 0 0 0 0 0 0 0 0 0 0 0
0 0 0 0 0 0 0 0 0 0 0 0 0 0 0 0 0 0 0 0 0 0 0 0 0 0 0 0 0 0 0 0 0 0 0 0 0 0 0 0 0 0 0 0
0 0 0 0 0 0 0 0 0 0 0 0 0 0 0 0 0 0 0 0 0 0 0 0 0 0 0 0 0 0 0 0 0 0 0 0 0 0 0 0 0 0 0 0
0 0 0 0 0 0 0 0 0 0 0 0 0 0 0 0 0 0 0 0 0 0 0 0 0 0 0 0 0 0 0 0 0 0 0 0 0 0 0 0 0 0 0 0
0 0 0 0 0 0 0 0 0 0 0 0 0 0 0 0 0 0 0 0 0 0 0 0 0 0 0 0 0 0 0 0 0 0 0 0 0 0 0 0 0 0 0 0
0 0 0 0 0 0 0 0 0 0 0 0 0 0 0 0 0 0 0 0 0 0 0 0 0 0 0 0 0 0 0 0 0 0 0 0 0 0 0 0 0 0 0 0
0 0 0 0 0 0 0 0 0 0 0 0 0 0 0 0 0 0 0 0 0 0 0 0 0 0 0 0 0 0 0 0 0 0 0 0 0 0 0 0 0 0 0 0
0 0 0 0 0 0 0 0 0 0 0 0 0 0 0 0 0 0 0 0 0 0 0 0 0 0 0 0 0 0 0 0 0 0 0 0 0 0 0 0 0 0 0 0
0 0 0 0 0 0 0 0 0 0 0 0 0 0 -0 0 0 0 0 0 0 0 0 0 0 0 0 0 0 0 0 0 0 0 0 0 0 0 0 0 0 0 0 0
0 0 0 0 0 0 0 0 0 0 0 0 0 0 0 0 0 0 0 0 0 0 0 0 0 0 0 0 0 0 0 0 0 0 0 0 0 0 0 0 0 0 0 0
0 0 0 0 0 0 0 0 0 0 0 0 0 0 0 0 0 0 0 0 0 0 0 0 0 0 0 0 0 0 0 0 0 0 0 0 0 0 0 0 0 0 0 0
0 0 0 0 0 0 0 0 0 0 0 0 0 0 0 0 0 0 0 0 0 0 0 0 0 0 0 0 0 0 0 0 0 0 0 0 0 0 0 0 0 0 0 0
0 0 0 0 0 0 0 0 0 0 0 0 0 0 0 0 0 0 0 0 0 0 0 0 0 0 0 0 0 0 0 0 0 0 0 0 0 0 0 0 0 0 0 0
0 0 0 0 0 0 0 0 0 0 0 0 0 0 0 0 0 0 0 0 0 0 0 0 0 0 0 0 0 0 0 0 0 0 0 0 0 0 0 0 0 0 0 0
0 0 0 0 0 0 0 0 0 0 0 0 0 0 0 0 0 0 0 0 0 0 0 0 0 0 0 0 0 0 0 0 0 0 0 0 0 0 0 0 0 0 0 0
0 0 0 0 0 0 0 0 0 0 0 0 0 0 0 0 0 0 0 0 0 0 0 0 0 0 0 0 0 0 0 0 0 0 0 0 0 0 0 0 0 0 0 0
0 0 0 0 0 0 0 0 0 0 0 0 0 0 0 0 0 0 0 0 0 0 0 0 0 0 0 0 0 0 0 0 0 0 0 0 0 0 0 0 0 0 0 0
0 0 0 0 0 0 0 0 0 0 0 0 0 0 0 0 0 0 0 0 0 0 0 0 0 0 0 0 0 0 0 0 0 0 0 0 0 0 0 0 0 0 0 0
0 0 0 0 0 0 0 0 0 0 0 0 0 0 0 0 0 0 0 0 0 0 0 0 0 0 0 0 0 0 0 0 0 0 0 0 0 0 0 0 0 0 0 0
0 0 0 0 0 0 0 0 0 0 0 0 0 0 0 0 0 0 0 0 0 0 0 0 0 0 0 0 0 0 0 0 0 0 0 0 0 0 0 0 0 0 0 0
0 0 0 0 0 0 0 0 0 0 0 0 0 0 0 0 0 0 0 0 0 0 0 0 0 0 0 0 0 0 0 0 0 0 0 0 0 0 0 0 0 0 0 0
0 0 0 0 0 0 0 0 0 0 0 0 0 0 0 0 0 0 0 0 0 0 0 0 0 0 0 0 0 0 0 0 0 0 0 0 0 0 0 0 0 0 0 0
0 0 0 0 0 0 0 0 0 0 0 0 0 0 0 0 0 0 0 0 0 0 0 0 0 0 0 0 0 0 0 0 0 0 0 0 0 0 0 0 0 0 0 0
0 0 0 0 0 0 0 0 0 0 0 0 0 0 0 0 0 0 0 0 0 0 0 0 0 0 0 0 0 0 0 0 0 0 0 0 0 0 0 0 0 0 0 0
Wind_Speed_500mb
20 10 20 18 13 10 11 11 13 2 8 9 16 11 15 28 28 25 26 38 42 36 36 39 49 47 44 42 43 40 43 44 44 42 39 39 39 35 33 29 26 24 23 26
9 27 17 19 18 18 9 12 8 3 1 5 11 19 12 23 24 39 35 40 41 40 40 41 45 52 53 53 50 48 47 46 46 44 41 42 39 35 32 29 29 30 30 27
17 12 17 15 13 17 12 12 12 14 7 3 7 12 11 15 29 35 35 30 38 48 46 43 43 44 49 59 63 62 54 48 47 44 34 35 32 33 30 28 29 30 29 28
10 8 24 14 15 17 15 10 14 22 11 8 9 9 12 13 14 20 40 40 38 37 40 42 39 39 43 47 54 63 67 62 53 46 42 41 34 31 27 26 26 21 19 18
12 14 14 11 16 11 9 13 17 9 8 10 6 4 13 14 11 17 31 36 37 38 39 41 36 33 33 35 39 46 59 67 64 51 43 39 30 30 27 22 18 15 13 14
4 5 9 13 6 11 17 15 16 10 6 2 9 11 9 11 17 11 21 38 41 41 39 34 31 29 28 27 28 34 46 60 63 57 43 34 31 28 26 23 19 17 19 17
4 2 2 7 15 10 12 9 5 4 2 11 4 5 15 11 15 17 31 48 45 40 36 31 30 28 25 24 24 27 38 47 57 52 45 39 35 26 29 26 22 18 16 11
14 9 14 7 14 18 13 13 11 12 8 8 4 13 12 6 12 29 54 57 45 40 35 33 30 30 31 29 29 30 35 44 48 53 51 46 38 29 31 25 23 19 14 8
12 4 4 6 2 20 11 9 11 13 6 7 8 11 13 3 4 27 49 54 49 42 41 39 37 35 36 36 36 37 39 41 41 43 42 35 31 30 29 26 21 17 14 11
11 9 5 4 3 5 11 15 6 4 10 8 8 8 10 12 20 14 27 49 53 52 46 42 42 43 43 43 44 44 43 45 46 46 45 42 37 32 28 25 22 17 13 10
5 9 2 4 10 15 6 8 6 10 10 11 3 12 15 25 32 34 40 61 65 58 54 51 49 46 46 46 46 47 47 48 46 44 43 40 37 32 28 23 19 15 9 4
3 10 8 10 3 4 0 11 10 10 11 1 6 11 7 11 25 48 50 65 64 60 57 53 52 52 52 51 51 49 48 47 46 43 40 38 34 30 24 18 12 7 4 6
16 3 8 8 6 3 11 9 12 9 7 13 11 13 5 8 18 45 56 66 66 62 60 56 54 53 53 52 51 52 50 49 46 42 39 36 31 24 17 12 9 6 6 11
29 6 14 20 13 14 14 14 12 11 6 8 13 19 11 10 18 31 50 67 71 70 68 66 63 61 56 56 56 55 52 47 46 43 38 32 26 21 16 11 6 7 12 17
13 13 9 3 8 8 10 29 23 16 37 15 44 24 15 17 20 48 58 63 72 76 76 75 72 67 64 62 60 57 54 51 46 41 35 30 25 19 13 8 5 10 15 21
2 7 11 6 13 9 8 16 32 40 41 26 35 31 16 27 36 38 62 72 74 82 86 82 78 75 75 72 67 63 57 53 48 41 35 30 24 16 10 2 6 14 21 24
15 11 8 21 3 11 6 30 27 23 34 39 36 52 10 16 34 53 58 75 86 94 95 94 91 87 84 78 72 68 62 56 49 42 36 29 22 14 7 6 13 20 24 26
13 12 5 7 5 8 25 11 34 33 28 38 35 22 17 23 48 65 77 87 91 87 91 96 98 94 86 78 73 69 64 57 51 44 36 28 19 11 7 13 22 25 25 28
3 11 7 12 8 11 20 14 18 20 39 19 39 42 24 24 23 47 76 86 85 88 93 100 103 99 90 84 78 73 67 60 52 45 35 25 16 11 13 20 23 22 24 28
5 3 8 5 12 20 14 17 29 16 29 29 39 39 24 35 19 36 71 91 97 94 88 92 96 97 90 87 83 77 69 60 52 41 31 21 15 15 19 20 21 24 29 34
6 2 27 15 9 17 12 12 33 17 21 19 40 54 43 25 53 46 40 60 88 89 88 89 91 95 95 90 83 76 67 58 48 38 27 20 19 20 19 19 22 27 31 35
25 22 14 11 14 35 19 5 37 11 5 5 4 8 20 53 48 38 34 49 71 84 85 84 84 91 91 89 85 76 65 54 43 32 24 22 22 21 20 22 26 28 29 31
11 9 12 20 15 2 19 3 13 6 6 4 6 10 8 16 28 26 30 51 67 79 83 82 84 90 91 86 78 71 59 48 37 26 25 26 23 23 23 23 22 23 27 33
3 2 6 5 4 7 23 10 11 12 6 8 11 12 13 16 18 25 34 49 65 76 80 79 84 92 90 81 70 57 52 43 30 37 32 27 25 25 23 21 23 26 31 37
5 13 6 5 6 5 15 32 35 26 20 13 14 17 17 19 23 28 37 50 61 68 76 80 87 93 89 82 71 60 48 34 37 35 33 31 30 25 21 21 25 30 36 42
13 11 8 8 10 10 4 1 21 25 27 25 22 19 21 23 26 29 40 49 58 67 75 81 85 84 77 68 60 48 35 45 44 39 38 35 29 24 22 25 28 32 35 39
Wind_Direction_500mb
178 146 198 174 161 192 165 189 170 234 193 133 195 173 206 196 206 193 186 171 185 196 197 198 201 202 200 207 218 227 227 231 234 237 241 221 224 227 232 238 240 241 250 260
142 215 190 161 176 218 181 207 152 20 28 118 177 236 223 198 213 198 189 189 192 191 191 199 203 209 207 208 208 211 224 234 238 241 248 232 224 228 234 243 250 256 257 258
167 195 181 165 181 198 192 178 183 163 161 56 119 298 205 235 213 212 195 187 188 190 190 198 211 218 215 216 217 216 212 222 234 243 231 223 221 229 233 237 245 256 259 257
178 211 174 164 183 158 205 182 150 138 127 199 153 255 239 207 188 194 192 189 187 189 200 215 220 221 221 220 220 219 218 216 221 226 223 225 222 227 234 239 246 250 254 255
203 170 144 173 184 159 195 140 142 136 115 110 210 125 264 133 198 217 207 204 209 205 212 213 220 224 227 227 224 221 217 216 217 214 214 222 227 223 222 224 224 233 241 247
135 235 145 172 80 142 144 90 48 63 81 269 228 163 264 189 200 204 201 199 188 187 194 207 214 215 213 213 210 205 208 210 213 213 199 204 208 203 209 214 217 218 223 228
86 341 261 161 83 12 111 113 57 32 355 225 358 197 252 236 223 199 183 182 175 183 194 199 199 192 189 190 187 184 189 196 203 207 202 188 199 210 187 185 185 193 200 209
154 207 184 199 166 172 167 153 146 173 189 217 342 225 240 237 280 212 192 185 185 193 195 191 190 183 177 175 170 168 170 180 189 198 205 209 212 177 173 171 160 149 146 130
146 195 358 55 44 149 206 181 159 102 23 72 217 285 305 264 102 158 171 174 175 178 179 181 180 176 169 167 160 158 160 162 169 177 186 189 161 146 143 140 140 138 131 117
184 115 11 308 97 14 166 153 98 9 137 230 267 269 233 232 210 181 167 169 172 174 181 179 176 170 166 164 156 151 148 146 147 148 148 146 145 144 142 140 138 131 124 109
136 101 289 153 209 166 149 182 171 130 153 168 153 255 217 207 193 187 182 179 180 181 182 179 174 170 166 162 158 154 152 149 148 148 148 148 146 144 141 139 130 127 116 82
147 113 139 214 228 249 6 204 154 159 220 222 148 265 194 217 196 180 181 184 187 189 183 182 177 175 171 167 162 159 156 155 155 154 152 151 146 143 143 139 131 114 82 26
177 136 90 14 345 293 206 200 204 110 80 198 150 254 265 277 166 180 174 188 189 187 184 184 182 179 177 172 167 166 165 165 159 157 157 151 148 148 145 134 120 87 29 4
145 133 170 190 190 141 188 193 198 165 127 190 224 243 240 199 177 177 181 190 189 189 189 190 188 186 182 179 177 174 169 168 163 163 161 158 157 156 145 131 97 38 7 352
125 180 177 273 146 151 166 186 176 194 225 182 239 234 227 210 192 192 188 186 186 192 195 196 192 189 187 185 183 178 176 172 170 170 169 165 160 151 137 109 41 352 340 333
78 229 141 256 209 218 196 205 192 204 225 229 251 272 188 213 203 178 187 187 188 196 203 202 199 196 194 191 186 182 181 177 175 176 174 168 160 154 150 160 320 325 326 328
147 135 113 233 116 96 310 211 198 207 218 216 233 240 135 198 195 190 189 193 198 205 209 208 205 202 199 194 191 187 185 182 178 179 176 170 169 181 207 275 309 319 322 327
146 127 94 155 74 191 246 172 202 208 220 221 243 248 190 203 220 213 213 210 211 210 212 213 211 206 203 196 191 189 186 184 182 180 181 182 190 213 268 306 315 319 322 325
101 133 156 153 193 295 269 217 163 171 244 206 226 242 211 230 237 231 224 224 225 225 226 222 217 209 201 195 192 189 186 186 184 187 188 192 208 246 285 301 304 310 315 320
34 106 151 112 162 205 288 174 149 99 267 218 215 239 204 177 218 241 233 227 225 226 221 219 217 209 201 196 193 189 188 187 188 190 194 204 227 262 285 292 301 310 316 322
163 155 203 208 232 276 223 149 146 154 250 164 214 232 217 199 225 250 241 237 230 226 221 220 218 207 200 194 191 190 190 190 191 193 201 219 244 269 278 287 296 307 313 320
182 179 195 205 215 258 149 84 174 225 103 113 245 260 236 230 238 246 237 228 221 218 214 215 206 200 195 193 190 189 189 189 191 197 211 234 257 266 270 283 299 308 314 318
198 195 177 196 217 324 199 114 139 140 99 49 343 324 294 235 234 228 211 207 209 209 207 204 200 194 191 190 190 189 189 190 194 206 235 247 250 255 272 286 293 303 311 315
220 19 146 96 246 262 202 177 193 224 277 310 324 304 274 262 244 234 217 206 202 202 199 196 195 190 185 185 186 193 192 191 208 226 232 236 241 256 269 281 294 304 311 314
193 146 152 302 246 320 265 238 249 256 270 293 306 285 264 243 239 236 219 211 207 202 195 193 191 187 184 183 184 187 193 208 223 230 230 228 237 245 260 280 296 306 312 315
187 170 167 213 187 142 139 170 232 250 279 282 284 278 263 244 249 238 223 216 210 201 195 191 188 186 184 183 185 188 204 224 224 226 224 229 233 243 263 280 292 301 306 310
Wind_Speed_850mb
20 10 20 18 13 10 11 11 13 2 8 9 16 11 15 28 28 25 26 38 42 36 36 39 49 47 44 42 43 40 43 44 44 42 39 39 39 35 33 29 26 24 23 26
9 27 17 19 18 18 9 12 8 3 1 5 11 19 12 23 24 39 35 40 41 40 40 41 45 52 53 53 50 48 47 46 46 44 41 42 39 35 32 29 29 30 30 27
17 12 17 15 13 17 12 12 12 14 7 3 7 12 11 15 29 35 35 30 38 48 46 43 43 44 49 59 63 62 54 48 47 44 34 35 32 33 30 28 29 30 29 28
10 8 24 14 15 17 15 10 14 22 11 8 9 9 12 13 14 20 40 40 38 37 40 42 39 39 43 47 54 63 67 62 53 46 42 41 34 31 27 26 26 21 19 18
12 14 14 11 16 11 9 13 17 9 8 10 6 4 13 14 11 17 31 36 37 38 39 41 36 33 33 35 39 46 59 67 64 51 43 39 30 30 27 22 18 15 13 14
4 5 9 13 6 11 17 15 16 10 6 2 9 11 9 11 17 11 21 38 41 41 39 34 31 29 28 27 28 34 46 60 63 57 43 34 31 28 26 23 19 17 19 17
4 2 2 7 15 10 12 9 5 4 2 11 4 5 15 11 15 17 31 48 45 40 36 31 30 28 25 24 24 27 38 47 57 52 45 39 35 26 29 26 22 18 16 11
14 9 14 7 14 18 13 13 11 12 8 8 4 13 12 6 12 29 54 57 45 40 35 33 30 30 31 29 29 30 35 44 48 53 51 46 38 29 31 25 23 19 14 8
12 4 4 6 2 20 11 9 11 13 6 7 8 11 13 3 4 27 49 54 49 42 41 39 37 35 36 36 36 37 39 41 41 43 42 35 31 30 29 26 21 17 14 11
11 9 5 4 3 5 11 15 6 4 10 8 8 8 10 12 20 14 27 49 53 52 46 42 42 43 43 43 44 44 43 45 46 46 45 42 37 32 28 25 22 17 13 10
5 9 2 4 10 15 6 8 6 10 10 11 3 12 15 25 32 34 40 61 65 58 54 51 49 46 46 46 46 47 47 48 46 44 43 40 37 32 28 23 19 15 9 4
3 10 8 10 3 4 0 11 10 10 11 1 6 11 7 11 25 48 50 65 64 60 57 53 52 52 52 51 51 49 48 47 46 43 40 38 34 30 24 18 12 7 4 6
16 3 8 8 6 3 11 9 12 9 7 13 11 13 5 8 18 45 56 66 66 62 60 56 54 53 53 52 51 52 50 49 46 42 39 36 31 24 17 12 9 6 6 11
29 6 14 20 13 14 14 14 12 11 6 8 13 19 11 10 18 31 50 67 71 70 68 66 63 61 56 56 56 55 52 47 46 43 38 32 26 21 16 11 6 7 12 17
13 13 9 3 8 8 10 29 23 16 37 15 44 24 15 17 20 48 58 63 72 76 76 75 72 67 64 62 60 57 54 51 46 41 35 30 25 19 13 8 5 10 15 21
2 7 11 6 13 9 8 16 32 40 41 26 35 31 16 27 36 38 62 72 74 82 86 82 78 75 75 72 67 63 57 53 48 41 35 30 24 16 10 2 6 14 21 24
15 11 8 21 3 11 6 30 27 23 34 39 36 52 10 16 34 53 58 75 86 94 95 94 91 87 84 78 72 68 62 56 49 42 36 29 22 14 7 6 13 20 24 26
13 12 5 7 5 8 25 11 34 33 28 38 35 22 17 23 48 65 77 87 91 87 91 96 98 94 86 78 73 69 64 57 51 44 36 28 19 11 7 13 22 25 25 28
3 11 7 12 8 11 20 14 18 20 39 19 39 42 24 24 23 47 76 86 85 88 93 100 103 99 90 84 78 73 67 60 52 45 35 25 16 11 13 20 23 22 24 28
5 3 8 5 12 20 14 17 29 16 29 29 39 39 24 35 19 36 71 91 97 94 88 92 96 97 90 87 83 77 69 60 52 41 31 21 15 15 19 20 21 24 29 34
6 2 27 15 9 17 12 12 33 17 21 19 40 54 43 25 53 46 40 60 88 89 88 89 91 95 95 90 83 76 67 58 48 38 27 20 19 20 19 19 22 27 31 35
25 22 14 11 14 35 19 5 37 11 5 5 4 8 20 53 48 38 34 49 71 84 85 84 84 91 91 89 85 76 65 54 43 32 24 22 22 21 20 22 26 28 29 31
11 9 12 20 15 2 19 3 13 6 6 4 6 10 8 16 28 26 30 51 67 79 83 82 84 90 91 86 78 71 59 48 37 26 25 26 23 23 23 23 22 23 27 33
3 2 6 5 4 7 23 10 11 12 6 8 11 12 13 16 18 25 34 49 65 76 80 79 84 92 90 81 70 57 52 43 30 37 32 27 25 25 23 21 23 26 31 37
5 13 6 5 6 5 15 32 35 26 20 13 14 17 17 19 23 28 37 50 61 68 76 80 87 93 89 82 71 60 48 34 37 35 33 31 30 25 21 21 25 30 36 42
13 11 8 8 10 10 4 1 21 25 27 25 22 19 21 23 26 29 40 49 58 67 75 81 85 84 77 68 60 48 35 45 44 39 38 35 29 24 22 25 28 32 35 39
Wind_Direction_850mb
178 146 198 174 161 192 165 189 170 234 193 133 195 173 206 196 206 193 186 171 185 196 197 198 201 202 200 207 218 227 227 231 234 237 241 221 224 227 232 238 240 241 250 260
142 215 190 161 176 218 181 207 152 20 28 118 177 236 223 198 213 198 189 189 192 191 191 199 203 209 207 208 208 211 224 234 238 241 248 232 224 228 234 243 250 256 257 258
167 195 181 165 181 198 192 178 183 163 161 56 119 298 205 235 213 212 195 187 188 190 190 198 211 218 215 216 217 216 212 222 234 243 231 223 221 229 233 237 245 256 259 257
178 211 174 164 183 158 205 182 150 138 127 199 153 255 239 207 188 194 192 189 187 189 200 215 220 221 221 220 220 219 218 216 221 226 223 225 222 227 234 239 246 250 254 255
203 170 144 173 184 159 195 140 142 136 115 110 210 125 264 133 198 217 207 204 209 205 212 213 220 224 227 227 224 221 217 216 217 214 214 222 227 223 222 224 224 233 241 247
135 235 145 172 80 142 144 90 48 63 81 269 228 163 264 189 200 204 201 199 188 187 194 207 214 215 213 213 210 205 208 210 213 213 199 204 208 203 209 214 217 218 223 228
86 341 261 161 83 12 111 113 57 32 355 225 358 197 252 236 223 199 183 182 175 183 194 199 199 192 189 190 187 184 189 196 203 207 202 188 199 210 187 185 185 193 200 209
154 207 184 199 166 172 167 153 146 173 189 217 342 225 240 237 280 212 192 185 185 193 195 191 190 183 177 175 170 168 170 180 189 198 205 209 212 177 173 171 160 149 146 130
146 195 358 55 44 149 206 181 159 102 23 72 217 285 305 264 102 158 171 174 175 178 179 181 180 176 169 167 160 158 160 162 169 177 186 189 161 146 143 140 140 138 131 117
184 115 11 308 97 14 166 153 98 9 137 230 267 269 233 232 210 181 167 169 172 174 181 179 176 170 166 164 156 151 148 146 147 148 148 146 145 144 142 140 138 131 124 109
136 101 289 153 209 166 149 182 171 130 153 168 153 255 217 207 193 187 182 179 180 181 182 179 174 170 166 162 158 154 152 149 148 148 148 148 146 144 141 139 130 127 116 82
147 113 139 214 228 249 6 204 154 159 220 222 148 265 194 217 196 180 181 184 187 189 183 182 177 175 171 167 162 159 156 155 155 154 152 151 146 143 143 139 131 114 82 26
177 136 90 14 345 293 206 200 204 110 80 198 150 254 265 277 166 180 174 188 189 187 184 184 182 179 177 172 167 166 165 165 159 157 157 151 148 148 145 134 120 87 29 4
145 133 170 190 190 141 188 193 198 165 127 190 224 243 240 199 177 177 181 190 189 189 189 190 188 186 182 179 177 174 169 168 163 163 161 158 157 156 145 131 97 38 7 352
125 180 177 273 146 151 166 186 176 194 225 182 239 234 227 210 192 192 188 186 186 192 195 196 192 189 187 185 183 178 176 172 170 170 169 165 160 151 137 109 41 352 340 333
78 229 141 256 209 218 196 205 192 204 225 229 251 272 188 213 203 178 187 187 188 196 203 202 199 196 194 191 186 182 181 177 175 176 174 168 160 154 150 160 320 325 326 328
147 135 113 233 116 96 310 211 198 207 218 216 233 240 135 198 195 190 189 193 198 205 209 208 205 202 199 194 191 187 185 182 178 179 176 170 169 181 207 275 309 319 322 327
146 127 94 155 74 191 246 172 202 208 220 221 243 248 190 203 220 213 213 210 211 210 212 213 211 206 203 196 191 189 186 184 182 180 181 182 190 213 268 306 315 319 322 325
101 133 156 153 193 295 269 217 163 171 244 206 226 242 211 230 237 231 224 224 225 225 226 222 217 209 201 195 192 189 186 186 184 187 188 192 208 246 285 301 304 310 315 320
34 106 151 112 162 205 288 174 149 99 267 218 215 239 204 177 218 241 233 227 225 226 221 219 217 209 201 196 193 189 188 187 188 190 194 204 227 262 285 292 301 310 316 322
163 155 203 208 232 276 223 149 146 154 250 164 214 232 217 199 225 250 241 237 230 226 221 220 218 207 200 194 191 190 190 190 191 193 201 219 244 269 278 287 296 307 313 320
182 179 195 205 215 258 149 84 174 225 103 113 245 260 236 230 238 246 237 228 221 218 214 215 206 200 195 193 190 189 189 189 191 197 211 234 257 266 270 283 299 308 314 318
198 195 177 196 217 324 199 114 139 140 99 49 343 324 294 235 234 228 211 207 209 209 207 204 200 194 191 190 190 189 189 190 194 206 235 247 250 255 272 286 293 303 311 315
220 19 146 96 246 262 202 177 193 224 277 310 324 304 274 262 244 234 217 206 202 202 199 196 195 190 185 185 186 193 192 191 208 226 232 236 241 256 269 281 294 304 311 314
193 146 152 302 246 320 265 238 249 256 270 293 306 285 264 243 239 236 219 211 207 202 195 193 191 187 184 183 184 187 193 208 223 230 230 228 237 245 260 280 296 306 312 315
187 170 167 213 187 142 139 170 232 250 279 282 284 278 263 244 249 238 223 216 210 201 195 191 188 186 184 183 185 188 204 224 224 226 224 229 233 243 263 280 292 301 306 310